Regional Weather Roundup
Issued by NWS

Home | Current Version | Previous Version | Graphics & Text | Print | Product List | Glossary On
Versions: 1 2 3 4 5 6 7 8 9 10 11 12 13 14 15 16 17 18 19 20 21 22 23 24 25 26 27 28 29 30 31 32 33 34 35 36 37 38 39 40 41 42 43 44 45 46 47 48 49 50
000
ASUS45 KTFX 211210
RWRMT
MONTANA REGIONAL WEATHER ROUNDUP
NATIONAL WEATHER SERVICE GREAT FALLS MT
600 AM MDT THU SEP 21 2017

NOTE: "FAIR" INDICATES FEW OR NO CLOUDS BELOW 12000 FEET WITH NO
SIGNIFICANT WEATHER AND/OR OBSTRUCTIONS TO VISIBILITY.

MTZ001>007-043-211300-
WEST OF THE DIVIDE

CITY           SKY/WX    TMP DP  RH WIND       PRES   REMARKS
KALISPELL      CLOUDY    41  39  93 CALM      29.78R
MISSOULA       CLOUDY    41  39  93 N3        29.81S
BUTTE          CLOUDY    32  31  96 SE6       29.81R WCI  26
MULLAN PASS    FOG       30  28  92 VRB3      29.76S VSB 1
ANACONDA         N/A     34  27  75 S3        29.81R
DEER LODGE       N/A     30  30 100 CALM      29.83R
EUREKA           N/A     43  39  87 CALM      29.77R
HAMILTON         N/A     39  34  81 S5        29.81R
LIBBY            N/A     32  32 100 SW3       29.80R
PLAINS           N/A     42  37  82 CALM      29.82S
THOMPSON FALLS   N/A     41  40  96 CALM      29.87R
$$

MTZ008-052>055-211300-
SOUTHWEST MONTANA

CITY           SKY/WX    TMP DP  RH WIND       PRES   REMARKS
BOZEMAN        CLOUDY    42  41  96 CALM      29.77S
DILLON         CLOUDY    38  31  76 CALM      29.77R
W YELLOWSTONE  CLOUDY    32  32 100 CALM      29.79S FOG
ENNIS          CLOUDY    41  36  81 N5        29.81S
THREE FORKS      N/A     41  34  76 CALM      29.80R
TWIN BRIDGES     N/A     38  32  79 CALM      29.79R
$$

MTZ009-010-012-014-046-048-049-054-211300-
EAST SLOPES AND CENTRAL MONTANA

CITY           SKY/WX    TMP DP  RH WIND       PRES   REMARKS
CUT BANK       CLEAR     30  28  92 NW8       29.75R WCI  22
GREAT FALLS    CLOUDY    37  29  72 SW9       29.75S WCI  30
HELENA         CLOUDY    38  32  79 CALM      29.78R
CHOTEAU          N/A     37  27  65 NW8       29.77R WCI  31
RAYNESFORD     MOCLDY    44  26  48 SW15      29.75S
$$

MTZ011-013-016-021-045-047-050-051-211300-
NORTH CENTRAL MONTANA

CITY           SKY/WX    TMP DP  RH WIND       PRES   REMARKS
HAVRE          PTCLDY    38  33  82 SW7       29.75R
LEWISTOWN      CLOUDY    42  31  64 CALM      29.76R
N BAR RANCH    CLOUDY    45  27  49 W5        29.77R
CHINOOK          N/A     41  34  75 W8        29.74R
GEYSER         CLOUDY    42  28  56 W9        29.76R
JUDITH GAP     MOCLDY    39  31  72 NW12      29.74R WCI  32
$$

MTZ017>020-022>027-061-062-211300-
NORTHEAST MONTANA

CITY           SKY/WX    TMP DP  RH WIND       PRES   REMARKS
GLASGOW        CLOUDY    45  39  79 W7        29.69R
JORDAN           N/A     50  36  58 W7        29.72S
SIDNEY         CLOUDY    47  41  80 S6        29.68R
WOLF POINT     CLOUDY    46  41  82 SW6       29.68R
MALTA          CLEAR     43  34  70 W13       29.71R
POPLAR           N/A     46  39  76 CALM      29.68R
SCOBEY           N/A     40  32  73 CALM      29.68R
$$

MTZ028>42-056>058-211300-
SOUTHCENTRAL AND SOUTHEAST MONTANA

CITY           SKY/WX    TMP DP  RH WIND       PRES   REMARKS
BAKER          PTCLDY    56  32  40 NW9       29.66F
BILLINGS       LGT RAIN  47  45  93 E6        29.74S
LIVINGSTON     LGT RAIN  42  39  89 NW9       29.76R
MILES CITY     LGT RAIN  50  43  77 NW10      29.71S
BIG TIMBER     CLOUDY    43  39  87 W13G20    29.77R
LAUREL           N/A     46  45  93 CALM      29.75S
$$

REGIONAL REPORTS...DAKOTAS

CITY           SKY/WX    TMP DP  RH WIND       PRES   REMARKS
WILLISTON      CLOUDY    49  40  71 SE5       29.67R
MINOT          PTCLDY    53  42  66 E6        29.64R
DICKINSON      CLOUDY    54  42  64 W7        29.63S
BEACH          CLOUDY    55  34  44 NW14      29.68F
CROSBY           N/A     46  39  76 SW9       29.65F
TIOGA            N/A     48  43  81 CALM      29.67R
BISMARCK       MOCLDY    57  44  62 SE9       29.70R
GRAND FORKS    CLOUDY    56  48  74 S14       29.81S
FARGO          CLOUDY    56  48  74 S16G24    29.86R
BUFFALO SD       N/A     60  39  45 NE6       29.59R
RAPID CITY     CLEAR     54  36  50 S13       29.66
$$

REGIONAL REPORTS...WYOMING/IDAHO/WASHINGTON

CITY           SKY/WX    TMP DP  RH WIND       PRES   REMARKS
GILLETTE       CLEAR     41  36  82 CALM      29.67R
SHERIDAN       CLOUDY    49  40  71 W12       29.74R
BUFFALO WY     CLOUDY    46  34  62 N12       29.73R
CODY           LGT RAIN  43  40  89 VRB5      29.73S
IDAHO FALLS    LGT RAIN  41  39  93 S9        29.77S
SALMON         CLOUDY    38  36  92 CALM      29.81R
BOISE          CLOUDY    47  44  90 CALM      29.79R
SPOKANE        CLOUDY    40  40 100 S6        29.81R
$$

REGIONAL REPORTS...ALBERTA

CITY           SKY/WX    TMP DP  RH WIND       PRES   REMARKS
EDMONTON       LGT RAIN  37  36  93 N14       29.70R WCI  29
CALGARY        FLURRIES  37  32  81 NW17      29.73R WCI  28
LETHBRIDGE     CLOUDY    39  32  75 SW5       29.76R
MEDICINE HAT   CLOUDY    41  36  81 SW9       29.73R
$$

REGIONAL REPORTS...SASKATCHEWAN

CITY           SKY/WX    TMP DP  RH WIND       PRES   REMARKS
SWIFT CURRENT  CLEAR     34  30  86 W16       29.66R WCI  23
REGINA         PTCLDY    36  32  87 SE3       29.63R
SASKATOON      PTCLDY    34  32  93 SW10      29.61R WCI  26
$$



USA.gov is the U.S. government's official web portal to all federal, state and local government web resources and services.